Location: Deer Lodge Site
(39.6809°N, 119.9392°W)
Time: 09:45:26
(UTC-07:00)

Amateur Radio Satellites - All Passes

Search period start: 25 October 2014 09:15
Search period end: 26 October 2014 09:15
Location: Deer Lodge Site, 39.6809°N, 119.9392°W

Satellite Date Start Highest point End Downlink Frequencies (MHz)
Time Altitude Azimuth
Oscar 10/S400 25 Oct 09:26:53 09:37:55 11° 162° (SSE) 09:45:42 145.825 - 145.975 CW/USB, Beacon 145.810 USB
PANSAT 25 Oct 09:36:03 09:38:17 15° 184° (S) 09:40:31 not established
UKube-1 25 Oct 09:48:41 09:51:47 19° 94° (E) 09:54:52 145.840 MHz, 145.915 MHz
HO-68 25 Oct 10:07:23 10:14:37 79° 105° (ESE) 10:21:48 435.675 MHz FM
RS-15 25 Oct 10:12:51 10:19:35 18° 261° (W) 10:26:32 29.354 - 29.394 USB, Beacon 29.352 USB
Oscar 11 25 Oct 10:28:49 10:33:01 50° 100° (E) 10:37:11 145.825 FM, Beacon 2401.500 USB
FUNcube-1 25 Oct 10:29:01 10:32:09 20° 94° (E) 10:35:13 145.950 - 145.970 MHz USB
ZACube-1 25 Oct 11:19:49 11:24:05 80° 102° (ESE) 11:28:15 437.345 MHz
UKube-1 25 Oct 11:24:03 11:28:04 36° 290° (WNW) 11:32:03 145.840 MHz, 145.915 MHz
PCSat 25 Oct 11:33:50 11:36:39 14° 42° (NE) 11:39:27 145.825 MHz
KITSAT 1 25 Oct 11:46:30 11:54:06 47° 111° (ESE) 12:01:43 435.175 FM
HO-68 25 Oct 11:56:32 12:01:31 21° 303° (WNW) 12:06:30 435.675 MHz FM
FUNcube-1 25 Oct 12:04:50 12:08:35 31° 290° (WNW) 12:12:17 145.950 - 145.970 MHz USB
Oscar 11 25 Oct 12:06:27 12:08:45 14° 295° (WNW) 12:11:03 145.825 FM, Beacon 2401.500 USB
ISS 25 Oct 12:27:47 12:31:01 51° 138° (SE) 12:34:16 145.800 FM
Sapphire 25 Oct 12:53:07 12:58:23 49° 57° (ENE) 13:03:37 437.095 MHz 1200 baud AX-25 AFSK
Oscar 19 25 Oct 12:53:40 12:58:03 29° 67° (ENE) 13:02:26 437.125 CW, 437.150 USB
SO-50 25 Oct 13:10:04 13:14:33 85° 302° (WNW) 13:19:12 436.795 FM
AO-27 25 Oct 13:14:06 13:17:45 20° 63° (ENE) 13:21:25 436.795 MHz FM
PCSat 25 Oct 13:15:30 13:20:57 80° 61° (ENE) 13:26:22 145.825 MHz
JAS-1B 25 Oct 13:22:35 13:28:14 47° 70° (ENE) 13:33:38 435.800 - 435.900 CW/SSB
AO-Echo 25 Oct 13:28:43 13:32:59 31° 68° (ENE) 13:37:23 ?
Oscar 16 25 Oct 13:38:37 13:43:46 80° 75° (ENE) 13:48:57 437.025 USB, Beacon 2401.1428
KITSAT 1 25 Oct 13:42:02 13:49:34 41° 310° (NW) 13:57:09 435.175 FM
Uribyol 2 25 Oct 13:59:39 14:04:43 53° 72° (ENE) 14:09:48 436.500 FM
ISS 25 Oct 14:05:08 14:07:52 23° 335° (NNW) 14:10:38 145.800 FM
ITAMSAT 1 25 Oct 14:05:51 14:10:56 57° 72° (ENE) 14:16:04 435.822 SSB
UOSAT-12 25 Oct 14:29:35 14:34:07 57° 118° (ESE) 14:38:44 437.025 FM, 437.400 FM
Gurwin Techsat 1B 25 Oct 14:30:16 14:35:22 50° 71° (ENE) 14:40:30 435.225 FM
Oscar 19 25 Oct 14:32:41 14:37:16 33° 263° (W) 14:41:53 437.125 CW, 437.150 USB
Sapphire 25 Oct 14:37:19 14:41:27 23° 254° (WSW) 14:45:34 437.095 MHz 1200 baud AX-25 AFSK
TMSAT-1 25 Oct 14:41:03 14:46:05 47° 71° (ENE) 14:51:10 436.925 FM
AO-27 25 Oct 14:51:46 14:56:50 52° 260° (W) 15:01:57 436.795 MHz FM
SO-50 25 Oct 14:53:44 14:55:52 13° 322° (NW) 14:58:01 436.795 FM
PCSat 25 Oct 15:01:22 15:03:36 13° 258° (WSW) 15:05:50 145.825 MHz
AO-Echo 25 Oct 15:07:31 15:11:42 28° 265° (W) 15:16:02 ?
AO-7 25 Oct 15:13:51 15:21:09 37° 60° (ENE) 15:28:29 29.400 - 29.500 MHz
JAS-1B 25 Oct 15:14:51 15:19:12 21° 266° (W) 15:23:24 435.800 - 435.900 CW/SSB
Uosat F 25 Oct 15:16:10 15:18:55 15° 61° (ENE) 15:21:41 435.120 FM
Oscar 16 25 Oct 15:22:11 15:23:41 11° 271° (W) 15:25:11 437.025 USB, Beacon 2401.1428
Uribyol 2 25 Oct 15:41:01 15:44:29 18° 268° (W) 15:47:59 436.500 FM
KITSAT 1 25 Oct 15:44:07 15:47:34 13° 337° (NNW) 15:51:01 435.175 FM
ISS 25 Oct 15:44:31 15:45:31 11° 355° (N) 15:46:32 145.800 FM
ITAMSAT 1 25 Oct 15:47:32 15:50:47 17° 268° (W) 15:54:02 435.822 SSB
Saudisat 1A 25 Oct 15:53:47 15:57:49 33° 51° (NE) 16:01:49 436.775 MHz
JAS-2 25 Oct 15:58:08 16:00:52 13° 53° (NE) 16:03:43 435.800 - 435.900 CW/SSB, 435.910 FM
UOSAT-12 25 Oct 16:11:13 16:14:37 20° 316° (NW) 16:18:04 437.025 FM, 437.400 FM
Gurwin Techsat 1B 25 Oct 16:11:51 16:15:36 19° 267° (W) 16:19:21 435.225 FM
TMSAT-1 25 Oct 16:22:18 16:26:13 21° 267° (W) 16:30:10 436.925 FM
Uosat F 25 Oct 16:52:08 16:57:07 67° 258° (WSW) 17:02:09 435.120 FM
OPAL 25 Oct 17:01:48 17:03:23 11° 92° (E) 17:04:58 ?
AO-7 25 Oct 17:05:42 17:13:39 51° 258° (WSW) 17:21:41 29.400 - 29.500 MHz
ISS 25 Oct 17:21:22 17:23:21 15° 16° (NNE) 17:25:20 145.800 FM
Hamsat 25 Oct 17:28:42 17:32:31 35° 72° (ENE) 17:36:21 145.90 MHz
Saudisat 1A 25 Oct 17:33:35 17:37:14 25° 247° (WSW) 17:40:51 436.775 MHz
JAS-2 25 Oct 17:38:40 17:44:34 78° 74° (ENE) 17:51:20 435.800 - 435.900 CW/SSB, 435.910 FM
AO-40 25 Oct 18:01:13 23:53:44 45° 183° (S) 07:33:11 Beacon 2401.320
OPAL 25 Oct 18:37:49 18:42:47 74° 288° (WNW) 18:47:42 ?
STRAND 1 25 Oct 18:46:10 18:49:29 17° 92° (E) 18:52:47 ?
ISS 25 Oct 18:57:19 19:00:37 56° 35° (NE) 19:03:54 145.800 FM
Hamsat 25 Oct 19:05:42 19:08:34 18° 267° (W) 19:11:26 145.90 MHz
JAS-2 25 Oct 19:27:18 19:30:35 15° 274° (W) 19:34:05 435.800 - 435.900 CW/SSB, 435.910 FM
SO-67 25 Oct 19:36:50 19:40:10 51° 261° (W) 19:43:32 435.3500 MHz FM
KITSAT 1 25 Oct 19:40:41 19:46:52 23° 38° (NE) 19:53:00 435.175 FM
SO-50 25 Oct 20:03:53 20:05:43 12° 37° (NE) 20:07:34 436.795 FM
RS-15 25 Oct 20:14:56 20:20:08 15° 97° (E) 20:25:18 29.354 - 29.394 USB, Beacon 29.352 USB
STRAND 1 25 Oct 20:23:58 20:28:59 54° 288° (WNW) 20:33:59 ?
HO-68 25 Oct 20:34:42 20:41:37 54° 68° (ENE) 20:48:34 435.675 MHz FM
ISS 25 Oct 20:34:58 20:36:59 15° 230° (SW) 20:38:59 145.800 FM
UKube-1 25 Oct 20:44:02 20:46:41 16° 64° (ENE) 20:49:20 145.840 MHz, 145.915 MHz
Oscar 11 25 Oct 21:23:04 21:27:00 36° 71° (ENE) 21:30:58 145.825 FM, Beacon 2401.500 USB
FUNcube-1 25 Oct 21:24:55 21:27:54 17° 66° (ENE) 21:30:50 145.950 - 145.970 MHz USB
KITSAT 1 25 Oct 21:35:19 21:43:26 86° 61° (ENE) 21:51:31 435.175 FM
SO-50 25 Oct 21:42:19 21:47:10 69° 57° (ENE) 21:52:02 436.795 FM
Oscar 10/S400 25 Oct 22:08:52 22:59:28 47° 211° (SSW) 05:59:59 145.825 - 145.975 CW/USB, Beacon 145.810 USB
ZACube-1 25 Oct 22:14:54 22:19:24 58° 74° (ENE) 22:23:51 437.345 MHz
UKube-1 25 Oct 22:18:18 22:22:28 46° 260° (W) 22:26:41 145.840 MHz, 145.915 MHz
RS-15 25 Oct 22:19:29 22:30:27 75° 117° (ESE) 22:41:19 29.354 - 29.394 USB, Beacon 29.352 USB
HO-68 25 Oct 22:23:41 22:29:36 28° 265° (W) 22:35:34 435.675 MHz FM
MaSat-1 25 Oct 22:46:36 22:49:22 18° 107° (ESE) 22:51:59 437.345 MHz
FUNcube-1 25 Oct 22:59:30 23:03:54 46° 261° (W) 23:08:16 145.950 - 145.970 MHz USB
UOSAT-12 25 Oct 23:00:05 23:04:32 40° 52° (NE) 23:08:55 437.025 FM, 437.400 FM
Oscar 11 25 Oct 23:00:13 23:03:17 19° 266° (W) 23:06:21 145.825 FM, Beacon 2401.500 USB
SO-50 25 Oct 23:24:41 23:27:10 14° 252° (WSW) 23:29:38 436.795 FM
KITSAT 1 25 Oct 23:32:41 23:37:47 19° 259° (WSW) 23:42:53 435.175 FM
ZACube-1 25 Oct 23:54:01 23:56:06 13° 269° (W) 23:58:11 437.345 MHz
MaSat-1 26 Oct 00:21:00 00:24:46 35° 299° (WNW) 00:28:13 437.345 MHz
RS-15 26 Oct 00:34:03 00:43:47 35° 321° (NW) 00:53:37 29.354 - 29.394 USB, Beacon 29.352 USB
UOSAT-12 26 Oct 00:40:45 00:44:26 23° 249° (WSW) 00:48:04 437.025 FM, 437.400 FM
JAS-1B 26 Oct 01:07:15 01:11:03 15° 92° (E) 01:15:09 435.800 - 435.900 CW/SSB
AO-Echo 26 Oct 01:38:52 01:40:24 11° 88° (E) 01:41:56 ?
Oscar 16 26 Oct 01:51:39 01:56:06 29° 96° (E) 02:00:32 437.025 USB, Beacon 2401.1428
Uribyol 2 26 Oct 02:14:10 02:17:57 20° 93° (E) 02:21:43 436.500 FM
PCSat 26 Oct 02:17:58 02:18:59 11° 101° (ESE) 02:20:00 145.825 MHz
ITAMSAT 1 26 Oct 02:20:24 02:24:23 22° 94° (E) 02:28:20 435.822 SSB
Oscar 19 26 Oct 02:44:23 02:49:32 87° 284° (WNW) 02:54:39 437.125 CW, 437.150 USB
Gurwin Techsat 1B 26 Oct 02:48:03 02:52:04 21° 93° (E) 02:56:04 435.225 FM
RS-15 26 Oct 02:53:58 03:00:52 18° 356° (N) 03:07:51 29.354 - 29.394 USB, Beacon 29.352 USB
JAS-1B 26 Oct 02:55:16 03:02:05 89° 105° (ESE) 03:10:18 435.800 - 435.900 CW/SSB
TMSAT-1 26 Oct 02:58:34 03:02:22 20° 93° (E) 03:06:09 436.925 FM
AO-27 26 Oct 03:05:31 03:10:42 61° 101° (ESE) 03:15:51 436.795 MHz FM
AO-Echo 26 Oct 03:14:25 03:19:46 84° 284° (WNW) 03:25:04 ?
Oscar 16 26 Oct 03:30:55 03:35:24 32° 292° (WNW) 03:39:52 437.025 USB, Beacon 2401.1428
Sapphire 26 Oct 03:33:58 03:39:11 53° 113° (ESE) 03:44:27 437.095 MHz 1200 baud AX-25 AFSK
Uribyol 2 26 Oct 03:52:40 03:57:39 47° 289° (WNW) 04:02:35 436.500 FM
PCSat 26 Oct 03:56:07 04:01:32 89° 117° (ESE) 04:06:59 145.825 MHz
ITAMSAT 1 26 Oct 03:59:06 04:04:02 44° 290° (WNW) 04:08:56 435.822 SSB
OPAL 26 Oct 04:14:37 04:18:30 22° 63° (ENE) 04:22:22 ?
Oscar 19 26 Oct 04:26:56 04:28:03 11° 301° (WNW) 04:29:10 437.125 CW, 437.150 USB
Gurwin Techsat 1B 26 Oct 04:27:10 04:32:14 46° 289° (WNW) 04:37:16 435.225 FM
TMSAT-1 26 Oct 04:37:26 04:42:32 49° 289° (WNW) 04:47:37 436.925 FM
AO-27 26 Oct 04:46:23 04:49:42 17° 298° (WNW) 04:53:00 436.795 MHz FM
JAS-1B 26 Oct 04:48:02 04:52:06 17° 300° (WNW) 04:56:33 435.800 - 435.900 CW/SSB
JAS-2 26 Oct 04:50:41 04:54:42 15° 86° (E) 04:58:40 435.800 - 435.900 CW/SSB, 435.910 FM
AO-Echo 26 Oct 04:56:08 04:57:40 11° 301° (WNW) 04:59:11 ?
Uosat F 26 Oct 05:00:49 05:05:35 40° 99° (E) 05:10:17 435.120 FM
AO-7 26 Oct 05:07:40 05:15:54 60° 103° (ESE) 05:24:05 29.400 - 29.500 MHz
RS-15 26 Oct 05:09:27 05:18:37 28° 32° (NNE) 05:28:00 29.354 - 29.394 USB, Beacon 29.352 USB
Sapphire 26 Oct 05:18:36 05:22:55 24° 311° (NW) 05:27:15 437.095 MHz 1200 baud AX-25 AFSK
PCSat 26 Oct 05:42:29 05:45:42 16° 317° (NW) 05:48:56 145.825 MHz
OPAL 26 Oct 05:52:10 05:57:05 45° 259° (WSW) 06:01:58 ?
STRAND 1 26 Oct 06:01:11 06:05:12 24° 65° (ENE) 06:09:15 ?
JAS-2 26 Oct 06:32:49 06:40:41 80° 103° (ESE) 06:48:27 435.800 - 435.900 CW/SSB, 435.910 FM
Uosat F 26 Oct 06:40:09 06:44:06 24° 295° (WNW) 06:48:02 435.120 FM
Hamsat 26 Oct 06:50:23 06:54:36 83° 102° (ESE) 06:58:49 145.90 MHz
AO-7 26 Oct 07:01:11 07:08:11 32° 302° (WNW) 07:15:13 29.400 - 29.500 MHz
SO-67 26 Oct 07:02:57 07:03:48 11° 91° (E) 07:04:38 435.3500 MHz FM
RS-15 26 Oct 07:21:41 07:32:56 82° 58° (ENE) 07:44:40 29.354 - 29.394 USB, Beacon 29.352 USB
PANSAT 26 Oct 07:31:24 07:33:17 13° 171° (S) 07:35:10 not established
Saudisat 1A 26 Oct 07:38:12 07:42:35 82° 302° (WNW) 07:47:00 436.775 MHz
STRAND 1 26 Oct 07:39:19 07:44:08 40° 262° (W) 07:48:59 ?
JAS-2 26 Oct 08:19:07 08:24:51 23° 300° (WNW) 08:30:36 435.800 - 435.900 CW/SSB, 435.910 FM
MaSat-1 26 Oct 08:32:38 08:34:15 15° 56° (NE) 08:35:48 437.345 MHz
SO-67 26 Oct 08:33:43 08:36:56 37° 286° (WNW) 08:40:08 435.3500 MHz FM
PANSAT 26 Oct 09:10:32 09:12:45 15° 184° (S) 09:14:57 not established
